Wind_Speed
7 7 6 5 4 3 8 10 15 20 17 17 16 11 9 7 8 13 26 20 20 20 19 18 20 18 18 16 15 14 14 15 15 15 17 17 17 18 19 18 18 17 17 16 16 16 16 17 16
9 7 5 3 1 8 16 17 18 14 17 15 16 13 8 8 5 25 25 23 19 19 18 17 17 16 15 14 12 12 11 12 14 15 16 16 17 18 18 17 16 16 16 16 14 15 16 16 16
5 5 3 1 2 8 20 16 17 19 19 15 11 10 8 20 22 23 24 23 20 20 17 16 14 14 12 10 9 9 9 10 12 14 15 15 16 18 18 17 16 15 16 15 14 15 15 16 16
5 2 4 1 7 10 15 17 18 23 14 11 11 11 19 17 18 21 24 21 21 18 17 15 13 12 10 8 7 8 7 8 9 12 13 13 15 16 15 15 16 14 12 13 14 15 15 15 13
3 2 3 8 11 10 16 17 18 17 13 12 7 16 20 14 20 21 23 18 11 16 14 12 11 10 8 7 7 8 8 9 10 11 12 11 13 14 13 14 12 12 12 13 14 14 14 13 11
1 3 3 5 12 18 16 16 17 12 11 8 10 18 17 21 21 21 20 16 12 11 12 10 9 8 8 9 9 10 10 9 10 12 12 10 11 13 13 13 12 13 13 13 12 13 13 12 12
3 2 3 5 12 16 19 23 14 14 11 12 12 16 19 21 20 20 20 16 10 13 8 7 8 9 10 10 9 9 8 9 9 12 12 11 12 13 13 12 11 12 12 12 13 13 13 13 13
3 4 3 7 11 9 18 26 14 12 12 14 11 9 21 23 21 20 17 20 15 6 8 6 9 9 10 10 9 9 8 10 10 13 13 13 14 14 14 13 11 13 13 13 13 13 14 14 14
5 4 3 4 15 13 19 22 17 16 13 9 6 10 19 22 21 18 17 18 14 11 5 5 9 9 10 10 10 9 9 9 11 14 14 14 15 13 13 13 13 12 13 14 13 13 14 16 15
7 4 4 4 14 22 19 18 15 12 12 10 14 17 19 22 22 19 15 14 13 13 7 11 8 10 12 11 9 9 8 11 13 16 15 16 11 10 12 12 12 12 13 13 14 13 11 15 15
4 3 4 2 9 30 19 17 13 13 11 15 16 11 22 22 21 20 18 14 13 13 6 13 12 11 13 10 8 8 9 13 14 17 14 15 10 8 12 11 12 11 11 14 11 13 13 15 11
3 4 6 8 15 28 23 17 13 14 10 14 16 16 22 22 20 18 16 15 14 14 14 11 13 14 12 11 7 10 9 13 14 18 14 11 9 10 13 10 10 11 13 12 12 13 12 12 12
7 1 4 7 18 29 25 15 14 10 14 17 20 22 22 21 19 17 16 14 14 13 12 12 14 14 14 9 10 10 14 12 16 18 14 9 11 11 10 15 7 12 11 10 8 12 12 14 14
3 5 8 8 19 25 22 15 17 11 17 21 22 23 21 20 19 18 16 15 14 13 11 12 14 13 12 9 7 12 15 17 14 17 15 12 10 10 11 10 9 12 7 12 10 12 13 12 14
8 7 9 7 11 30 27 16 15 14 20 24 24 22 21 20 18 16 15 15 14 12 12 13 13 13 11 9 9 12 15 13 13 17 14 12 11 14 10 10 13 7 10 11 11 12 13 11 13
11 11 9 8 16 26 26 23 17 17 22 24 23 22 20 19 17 17 15 15 14 11 13 14 12 13 11 10 11 12 13 12 13 16 13 12 11 8 12 11 8 12 12 7 11 10 9 10 11
14 11 10 9 16 22 19 25 20 19 21 22 22 22 20 18 17 16 15 15 14 14 14 15 13 10 11 12 12 13 12 13 12 14 14 11 10 11 11 10 12 13 12 11 7 10 7 11 14
17 16 13 15 23 21 21 23 25 31 24 22 22 22 20 18 17 17 16 15 14 15 15 15 11 12 13 12 12 9 10 13 12 10 9 12 10 10 10 10 11 16 10 4 14 11 13 10 20
9 14 18 14 15 24 22 17 25 27 32 26 24 23 21 19 18 18 16 14 14 14 16 17 14 12 14 13 11 9 9 8 11 11 12 11 9 10 9 7 9 13 11 10 15 11 8 5 12
11 5 12 14 20 12 10 19 26 29 23 32 27 27 24 22 21 19 19 15 13 13 15 15 15 12 13 15 14 12 8 9 9 7 9 9 10 10 9 8 9 8 11 11 11 15 9 3 16
15 10 16 15 16 15 9 14 23 23 35 37 27 27 25 26 22 23 19 18 15 13 15 16 16 14 13 13 14 15 13 10 10 10 8 8 8 9 9 10 10 12 9 4 10 11 15 5 7
18 12 11 21 27 14 21 6 19 23 39 37 38 29 26 25 26 16 18 17 15 13 13 15 16 15 13 11 15 12 11 10 7 6 5 7 8 8 9 10 10 11 13 15 7 10 14 14 2
9 12 9 26 18 5 19 8 9 22 40 38 32 32 23 27 17 22 19 17 17 15 12 13 14 15 15 14 12 11 11 9 9 8 9 7 9 10 9 9 11 10 12 13 9 11 12 17 15
8 10 8 7 8 16 19 11 16 31 40 36 30 29 29 22 23 25 18 21 19 16 15 13 14 15 15 15 14 13 14 13 12 8 8 8 9 9 9 11 11 11 8 11 10 9 10 14 17
16 14 8 8 9 3 19 12 8 23 28 30 30 31 30 27 26 25 19 26 23 21 17 16 14 14 15 15 15 13 12 11 9 8 8 6 8 9 10 10 10 10 11 10 10 9 10 11 12
21 19 11 9 10 11 10 7 13 18 22 27 24 34 33 32 28 27 25 25 17 27 20 18 15 15 15 14 14 15 15 12 10 11 9 8 8 8 7 9 10 10 11 12 11 11 12 11 11
22 26 22 17 21 5 12 10 13 17 19 23 26 32 34 37 30 29 26 29 23 21 21 18 15 16 16 16 13 13 16 14 14 14 11 10 9 7 7 7 8 8 11 11 13 13 14 13 13
21 23 24 21 19 15 15 15 18 20 26 23 25 29 34 34 35 29 31 31 30 26 21 18 13 14 17 17 16 15 14 15 13 13 13 12 10 9 7 8 8 8 8 9 11 13 14 14 13
23 19 28 25 27 7 8 4 10 19 20 23 25 30 32 44 41 33 30 24 36 27 28 22 17 13 15 18 17 17 16 16 17 15 13 13 10 11 8 9 8 7 7 6 6 7 10 13 15
23 24 21 25 26 25 9 11 4 7 13 18 24 24 24 32 42 30 36 37 26 24 23 25 21 20 16 17 18 19 19 17 16 17 15 13 11 12 11 9 9 9 8 7 6 6 7 8 11
Wind_Direction
122 129 107 134 282 118 136 101 127 126 120 126 115 128 101 114 132 128 138 144 136 129 123 118 112 110 107 104 99 95 90 86 88 85 79 82 88 92 95 97 100 95 92 88 85 85 87 91 89
123 115 97 90 176 143 114 124 126 127 125 120 108 108 90 117 152 135 142 137 138 133 133 127 121 112 108 103 103 103 100 92 88 88 81 80 89 92 94 93 96 94 89 92 88 85 89 91 91
125 125 57 174 170 137 119 129 130 122 119 118 113 127 125 112 123 138 142 135 147 149 138 137 132 125 119 113 107 105 106 101 93 92 87 84 94 98 96 92 95 96 93 88 89 88 88 91 90
103 74 213 347 152 121 122 135 132 132 124 117 103 100 117 128 127 146 137 146 142 152 145 146 140 134 126 123 122 125 124 122 116 103 95 91 97 101 98 92 87 90 91 86 84 85 87 88 87
92 44 177 121 124 124 124 135 139 128 116 111 95 117 126 127 140 143 135 138 162 137 147 145 138 133 132 135 134 134 135 138 138 118 107 97 98 105 101 95 97 95 89 85 84 83 84 83 84
116 37 159 149 138 136 124 137 141 139 127 120 122 129 131 137 144 138 133 151 173 146 147 147 139 132 130 129 129 128 130 136 140 131 113 97 102 103 101 98 91 84 84 79 82 80 79 76 78
249 94 144 177 149 145 151 143 146 152 135 126 122 131 138 140 145 136 149 166 157 127 158 157 141 134 133 130 130 127 130 128 133 130 118 107 106 103 102 101 93 93 83 84 82 77 75 75 80
322 265 213 185 170 164 162 150 149 149 144 133 156 141 147 150 143 146 160 160 128 155 163 136 136 132 138 133 133 131 130 132 135 136 125 116 111 103 104 100 98 93 85 81 82 82 80 79 80
277 271 250 206 188 179 165 163 151 170 170 134 162 162 153 146 145 155 165 143 152 138 143 112 149 137 138 133 130 133 137 141 140 141 129 119 107 101 102 102 104 95 87 85 90 88 87 86 79
269 329 319 235 217 191 172 178 177 159 154 157 138 160 152 148 147 152 151 159 140 153 158 125 158 141 136 134 132 133 150 147 147 142 137 121 101 106 106 103 103 98 88 87 89 86 97 87 57
255 325 354 279 202 184 174 155 158 165 161 161 167 178 154 150 149 154 157 146 164 135 113 190 182 162 128 131 132 127 152 152 146 146 142 131 132 126 113 108 110 105 96 88 81 74 65 114 82
209 356 310 199 192 179 160 146 160 157 175 169 165 158 156 152 151 153 152 153 157 151 170 192 147 136 140 129 134 120 145 146 145 149 144 143 136 135 119 124 104 108 99 93 86 87 93 86 94
255 80 52 135 166 164 169 154 171 166 150 161 158 157 157 154 153 154 158 165 154 151 159 152 146 135 138 144 136 141 126 134 149 149 136 158 140 123 115 96 146 114 72 63 80 89 93 90 96
173 183 134 113 178 172 182 178 132 163 157 160 160 157 158 159 157 160 163 161 155 158 161 155 138 139 139 130 127 124 153 141 138 152 156 151 133 124 102 91 100 115 142 150 107 96 94 104 87
180 194 151 167 182 194 194 175 140 154 158 157 159 159 161 162 165 164 167 163 159 150 153 144 150 142 144 146 146 135 128 139 142 148 151 148 144 136 107 106 115 171 119 112 106 104 99 86 97
199 211 182 213 173 168 182 176 146 162 160 160 161 163 166 167 167 164 169 166 162 171 158 142 151 148 156 163 147 119 144 141 154 156 156 151 146 139 140 138 110 125 107 104 107 77 97 103 106
209 227 179 161 156 175 174 174 157 164 165 165 166 169 170 170 169 165 166 165 168 172 153 140 152 149 162 157 155 149 148 143 144 155 158 155 148 137 134 140 139 130 114 123 76 122 102 106 80
204 213 183 169 178 187 187 181 171 164 170 174 174 175 174 174 174 168 165 171 159 177 154 144 140 158 151 144 142 140 149 142 153 152 182 163 157 154 109 158 137 115 81 125 160 127 133 129 118
233 236 177 182 170 191 182 189 186 181 167 173 181 182 179 178 179 168 173 174 169 170 163 165 151 152 147 134 128 141 134 165 147 172 155 163 163 163 158 157 145 136 169 172 125 83 106 140 123
227 218 135 156 157 154 173 190 204 204 196 170 188 180 182 179 182 178 184 172 177 172 172 166 158 158 159 143 162 159 164 157 164 185 175 165 162 157 157 190 153 161 159 149 129 135 119 133 134
224 243 198 187 170 194 195 203 193 203 186 174 184 176 195 189 192 181 179 173 200 184 171 171 166 167 169 163 169 162 178 168 181 186 169 167 177 177 173 179 169 164 138 173 152 144 133 189 162
224 226 210 167 157 181 191 167 195 197 181 178 181 187 188 195 195 196 181 178 190 197 182 175 177 170 157 159 169 160 164 159 145 172 202 199 182 186 189 182 169 181 168 178 165 178 156 129 212
239 224 256 222 165 175 197 236 172 188 181 183 189 207 181 210 201 186 191 193 187 200 194 183 178 177 168 165 155 159 163 160 169 177 199 194 190 188 191 187 178 177 189 189 191 177 181 150 139
223 212 220 216 205 215 172 190 182 185 185 180 189 194 203 197 191 202 205 199 199 197 198 203 179 182 186 174 173 179 155 169 193 176 178 199 199 191 185 187 189 189 196 206 200 200 199 199 182
211 204 185 227 215 229 174 208 161 192 186 186 186 192 191 193 195 197 202 192 209 189 192 213 185 184 188 188 181 180 185 186 184 185 191 181 192 197 203 196 198 202 205 201 206 215 213 213 207
209 204 202 207 219 179 167 213 142 168 193 193 204 200 189 189 196 198 196 224 191 176 194 207 193 191 192 195 194 189 188 193 190 200 182 193 193 192 204 209 206 208 212 214 205 213 211 217 221
212 217 224 262 275 196 240 136 138 165 178 182 195 204 191 186 190 195 200 192 199 207 204 198 193 198 203 199 199 203 195 196 201 200 193 186 212 206 202 207 207 211 210 209 215 219 220 226 225
224 218 228 233 265 270 149 211 156 175 189 195 197 199 201 192 183 195 203 216 205 194 190 196 199 204 214 212 205 207 209 204 201 201 208 206 206 207 212 211 209 211 214 219 223 229 228 234 229
212 228 224 231 241 261 263 157 193 167 179 192 197 198 204 195 186 182 196 219 217 190 198 211 218 226 220 219 218 222 214 215 212 210 210 212 221 223 223 229 219 212 207 216 226 237 247 234 236
220 218 223 233 236 261 274 267 283 132 160 173 183 197 202 199 216 179 195 207 222 198 212 228 214 230 215 216 217 224 228 222 220 212 211 219 224 215 224 229 229 223 223 223 234 236 244 248 253
Height
3162 3162 3162 3164 3169 3166 3165 3168 3169 3171 3173 3175 3177 3178 3177 3176 3177 3184 3186 3190 3191 3191 3192 3194 3195 3196 3198 3198 3200 3200 3200 3201 3201 3200 3201 3201 3201 3201 3201 3202 3203 3203 3202 3203 3203 3203 3203 3203 3203
3162 3164 3164 3165 3167 3166 3167 3170 3172 3174 3175 3176 3178 3180 3179 3179 3178 3181 3187 3191 3194 3193 3195 3196 3198 3199 3199 3200 3201 3202 3203 3203 3203 3204 3203 3203 3203 3204 3204 3205 3205 3205 3205 3205 3206 3206 3206 3206 3206
3163 3164 3166 3164 3166 3166 3168 3171 3173 3175 3177 3179 3181 3179 3179 3181 3182 3184 3188 3194 3196 3194 3197 3199 3200 3201 3201 3202 3203 3204 3204 3205 3206 3206 3206 3206 3206 3207 3208 3208 3208 3209 3210 3209 3209 3208 3209 3209 3209
3163 3165 3167 3165 3166 3167 3168 3173 3175 3176 3179 3180 3180 3179 3181 3185 3187 3186 3191 3195 3193 3196 3198 3201 3202 3202 3203 3204 3205 3206 3206 3207 3208 3209 3209 3209 3209 3210 3211 3211 3211 3212 3212 3212 3212 3212 3212 3212 3213
3165 3165 3165 3164 3167 3169 3171 3175 3177 3179 3181 3182 3182 3181 3183 3186 3187 3189 3195 3198 3195 3197 3200 3202 3203 3203 3204 3205 3206 3207 3208 3208 3210 3211 3211 3212 3213 3213 3214 3214 3214 3215 3215 3215 3215 3215 3215 3215 3216
3165 3165 3165 3166 3167 3170 3172 3178 3179 3181 3183 3181 3181 3182 3185 3186 3189 3193 3199 3200 3198 3200 3201 3203 3204 3204 3204 3206 3207 3208 3209 3210 3211 3213 3214 3214 3214 3216 3216 3217 3218 3218 3218 3218 3218 3218 3219 3219 3219
3165 3165 3165 3166 3166 3170 3172 3173 3181 3183 3184 3185 3185 3184 3187 3189 3193 3198 3201 3197 3200 3200 3202 3203 3204 3205 3206 3208 3208 3210 3211 3212 3213 3215 3216 3217 3218 3219 3220 3221 3221 3221 3221 3221 3221 3222 3222 3222 3222
3165 3166 3164 3166 3168 3170 3172 3174 3179 3184 3182 3186 3187 3186 3189 3191 3196 3201 3202 3200 3205 3204 3203 3205 3206 3207 3208 3209 3210 3211 3212 3214 3216 3218 3219 3219 3220 3221 3222 3223 3224 3224 3224 3224 3225 3225 3225 3225 3225
3167 3166 3165 3165 3165 3167 3170 3174 3177 3180 3183 3188 3189 3187 3190 3193 3198 3202 3202 3202 3207 3209 3206 3206 3206 3210 3209 3211 3212 3213 3214 3215 3217 3219 3221 3222 3223 3224 3225 3226 3227 3227 3227 3228 3228 3229 3228 3228 3229
3167 3166 3165 3164 3163 3167 3170 3174 3178 3183 3185 3188 3190 3189 3190 3195 3200 3203 3206 3207 3208 3209 3209 3210 3211 3209 3211 3212 3213 3215 3215 3217 3218 3221 3223 3224 3225 3227 3228 3228 3229 3230 3231 3231 3232 3232 3232 3231 3233
3168 3167 3165 3163 3161 3164 3170 3174 3180 3184 3185 3189 3187 3188 3192 3195 3201 3205 3207 3208 3210 3210 3210 3209 3210 3210 3212 3214 3215 3215 3216 3218 3220 3223 3224 3227 3229 3230 3231 3231 3232 3233 3233 3232 3234 3234 3236 3236 3237
3168 3167 3163 3159 3160 3165 3171 3177 3179 3183 3187 3188 3188 3190 3193 3197 3202 3205 3208 3210 3210 3211 3211 3210 3210 3212 3214 3215 3216 3221 3219 3219 3222 3224 3227 3229 3230 3231 3232 3234 3234 3235 3236 3236 3238 3237 3237 3239 3239
3166 3169 3164 3161 3162 3167 3172 3176 3180 3184 3186 3189 3189 3192 3196 3201 3204 3207 3210 3210 3211 3212 3211 3211 3212 3214 3215 3216 3219 3219 3220 3225 3223 3227 3230 3231 3232 3233 3234 3236 3237 3238 3240 3240 3241 3240 3241 3242 3243
3169 3166 3165 3164 3166 3169 3173 3176 3180 3184 3188 3189 3191 3195 3200 3203 3206 3208 3209 3210 3211 3212 3212 3212 3213 3215 3217 3218 3219 3220 3223 3224 3227 3228 3230 3232 3234 3236 3236 3238 3239 3240 3241 3241 3242 3243 3244 3246 3247
3169 3165 3167 3165 3167 3169 3174 3179 3182 3185 3188 3189 3193 3198 3202 3204 3207 3208 3209 3210 3212 3212 3212 3213 3214 3216 3217 3219 3220 3222 3224 3228 3229 3230 3232 3234 3236 3238 3239 3240 3240 3242 3243 3244 3245 3246 3247 3249 3251
3168 3167 3165 3164 3164 3168 3175 3178 3180 3186 3189 3192 3196 3200 3203 3205 3206 3208 3209 3210 3213 3213 3214 3214 3217 3217 3219 3220 3222 3225 3228 3230 3230 3231 3234 3236 3238 3239 3241 3241 3242 3242 3245 3248 3248 3251 3251 3253 3254
3164 3162 3162 3166 3166 3169 3174 3176 3180 3188 3191 3194 3198 3201 3204 3206 3207 3209 3210 3211 3212 3213 3214 3215 3217 3219 3220 3222 3223 3225 3226 3230 3233 3233 3235 3237 3239 3241 3241 3242 3243 3244 3248 3251 3254 3252 3255 3255 3257
3158 3158 3161 3162 3169 3170 3172 3174 3181 3184 3191 3196 3199 3202 3205 3207 3209 3210 3212 3213 3215 3213 3215 3216 3218 3220 3221 3222 3224 3227 3229 3230 3234 3236 3237 3239 3241 3242 3243 3244 3245 3245 3252 3252 3251 3252 3254 3257 3260
3157 3156 3156 3162 3165 3170 3168 3174 3179 3183 3187 3193 3199 3202 3205 3208 3209 3212 3214 3215 3216 3215 3216 3219 3219 3222 3223 3224 3227 3229 3231 3233 3234 3237 3238 3239 3241 3243 3246 3246 3247 3247 3250 3250 3251 3255 3257 3260 3261
3158 3155 3156 3164 3166 3169 3172 3175 3177 3179 3182 3188 3197 3200 3203 3207 3207 3211 3212 3216 3217 3216 3216 3218 3220 3223 3225 3226 3228 3230 3232 3233 3235 3236 3238 3240 3241 3243 3245 3247 3248 3249 3250 3252 3253 3256 3260 3261 3262
3156 3155 3154 3159 3161 3169 3171 3169 3175 3177 3182 3186 3192 3195 3202 3203 3207 3208 3212 3216 3216 3217 3217 3218 3220 3223 3226 3228 3229 3231 3233 3234 3236 3237 3239 3240 3242 3244 3245 3247 3249 3250 3252 3255 3255 3257 3260 3263 3263
3155 3156 3154 3155 3156 3165 3167 3170 3170 3172 3177 3182 3186 3194 3195 3203 3205 3208 3211 3215 3219 3219 3218 3219 3221 3222 3225 3227 3230 3231 3233 3235 3237 3239 3240 3241 3243 3244 3246 3247 3249 3251 3252 3255 3257 3258 3259 3263 3266
3155 3157 3152 3139 3157 3160 3167 3167 3167 3170 3176 3176 3185 3189 3193 3199 3203 3209 3213 3214 3219 3221 3221 3219 3221 3223 3225 3226 3230 3232 3233 3235 3238 3239 3240 3242 3242 3244 3246 3247 3249 3251 3253 3255 3256 3258 3259 3262 3265
3156 3156 3154 3154 3155 3156 3156 3160 3165 3160 3167 3176 3183 3188 3193 3197 3204 3205 3210 3212 3216 3221 3222 3220 3221 3223 3226 3227 3229 3232 3233 3236 3237 3238 3239 3241 3243 3244 3245 3247 3249 3251 3253 3255 3257 3258 3259 3260 3261
3157 3156 3156 3155 3152 3147 3145 3151 3154 3160 3164 3169 3178 3185 3192 3198 3202 3206 3208 3208 3213 3216 3221 3220 3220 3222 3225 3227 3228 3231 3234 3235 3237 3238 3239 3241 3243 3245 3245 3247 3249 3250 3252 3254 3256 3258 3260 3261 3262
3154 3155 3153 3151 3143 3139 3146 3148 3151 3159 3164 3169 3173 3180 3188 3192 3199 3204 3206 3204 3208 3211 3218 3220 3219 3221 3224 3226 3228 3230 3233 3235 3236 3238 3239 3241 3242 3244 3246 3246 3247 3250 3251 3253 3255 3257 3259 3260 3262
3151 3152 3153 3150 3143 3153 3152 3150 3153 3159 3162 3167 3171 3174 3178 3186 3194 3201 3203 3202 3210 3214 3213 3218 3218 3220 3222 3224 3227 3230 3232 3234 3236 3237 3239 3241 3242 3243 3245 3246 3247 3248 3249 3251 3253 3255 3257 3258 3260
3146 3152 3152 3149 3142 3132 3140 3150 3142 3150 3158 3163 3167 3171 3175 3182 3188 3198 3200 3201 3205 3209 3207 3215 3216 3219 3221 3223 3226 3227 3230 3232 3235 3237 3238 3239 3241 3243 3244 3245 3246 3248 3249 3250 3252 3253 3255 3256 3257
3147 3146 3147 3146 3140 3137 3129 3138 3145 3140 3150 3157 3164 3168 3171 3174 3185 3193 3200 3194 3196 3203 3206 3211 3214 3217 3220 3222 3225 3227 3228 3230 3232 3235 3236 3239 3240 3241 3243 3245 3246 3247 3248 3249 3250 3252 3252 3254 3255
3141 3144 3144 3143 3144 3135 3140 3149 3136 3147 3150 3153 3161 3166 3166 3173 3177 3180 3192 3193 3190 3196 3203 3208 3214 3215 3218 3220 3223 3224 3226 3228 3230 3232 3234 3237 3238 3240 3241 3243 3244 3245 3246 3247 3249 3250 3251 3252 3254